User: anonymous   Login
Location: Chuathbaluk
(61.5726°N, 159.2454°W)
Time: 23:52:45
(UTC+00:00)
Language:

ITAMSAT 1 - Orbit

View from above orbital plane
View from above orbital plane
View from above satellite
View from above satellite

Ground track
Ground track

The orbit data is extracted from the following two-line orbital elements,

1 22826U 93061D   21129.52809112  .00000000  00000-0  17936-4 0  9992
2 22826  98.9139 146.0970 0009805 131.1892 229.0137 14.30452262440668
Epoch (UTC): 09 May 2021 12:40:27
Eccentricity: 0.0009805
inclination: 98.9139°
perigee height: 783 km
apogee height: 797 km
right ascension of ascending node: 146.0970°
argument of perigee: 131.1892°
revolutions per day: 14.30452262
mean anomaly at epoch: 229.0137°
orbit number at epoch: 44066

The dashed part of the orbit path shows where the satellite is in the earth's shadow,  

DLR